Wind_Speed
19 19 19 18 19 19 20 20 20 20 21 19 19 18 18 18 18 17 17 17 17 17 17 17 17 17 18 18 18 18 18 19 20 20 21 21 20 20 20 20 20 20 21
20 19 18 19 20 20 21 21 21 20 20 19 18 17 17 17 17 17 17 17 17 17 17 16 16 16 17 17 18 18 19 19 19 20 21 21 20 20 20 20 21 21 21
21 20 19 19 19 20 20 21 20 19 19 18 17 16 16 16 16 16 16 16 16 16 16 16 15 16 17 17 18 19 19 19 19 20 19 20 20 20 20 20 20 20 21
20 20 19 18 18 19 19 19 18 17 17 16 16 15 16 16 16 16 16 16 16 16 15 16 16 16 16 17 18 18 19 18 19 19 19 20 20 20 20 21 21 21 21
20 19 19 19 18 18 18 18 17 16 16 15 15 15 16 16 16 16 16 16 16 16 16 17 17 17 17 17 17 18 18 18 19 19 20 20 20 20 21 21 21 21 21
20 20 20 20 19 19 19 19 18 16 16 15 16 16 16 16 16 16 16 15 15 15 16 17 17 17 17 17 17 17 17 17 18 19 20 19 19 19 20 20 21 21 21
20 20 20 20 20 19 19 18 17 17 17 17 17 17 17 17 16 16 16 16 16 16 16 16 17 17 17 17 17 17 17 18 19 20 19 19 19 19 19 20 20 20 21
21 20 21 20 19 18 18 18 18 18 18 18 18 18 17 17 16 15 16 16 16 16 16 16 17 17 17 17 17 18 19 19 19 19 20 20 19 20 20 20 21 21 21
21 21 21 21 20 19 19 19 18 18 18 18 18 18 17 17 18 17 16 16 16 16 16 17 16 16 16 17 18 19 20 20 20 20 20 20 20 21 21 22 22 22 23
22 21 21 21 21 20 20 19 19 19 18 17 17 17 18 18 18 18 17 16 16 16 16 16 16 16 17 17 18 18 20 20 20 21 21 21 21 22 22 23 23 23 23
22 22 21 21 20 20 20 19 19 19 18 18 17 17 17 17 17 17 16 16 16 16 16 16 16 17 17 18 18 18 19 19 20 21 22 22 22 22 23 24 24 25 25
23 22 22 21 21 21 20 20 20 19 19 18 18 18 18 18 17 17 17 16 16 17 16 16 17 17 17 18 18 18 19 20 20 21 21 22 22 23 24 25 25 26 26
24 23 22 22 21 21 21 21 20 19 19 18 18 17 18 18 17 17 18 18 18 17 17 17 17 18 18 18 19 19 20 20 21 21 21 22 22 23 24 24 25 26 26
25 23 23 22 22 22 22 21 20 20 19 19 17 17 17 17 17 18 18 18 18 18 18 18 18 18 19 20 20 20 20 20 20 20 20 21 21 22 22 23 24 25 25
25 24 23 23 23 23 22 21 21 20 19 18 18 18 18 18 18 19 19 18 18 18 19 19 19 19 20 20 19 19 18 18 19 20 20 21 21 21 22 23 24 24 25
26 25 24 23 23 23 23 22 21 20 19 19 19 19 19 19 19 19 19 18 18 18 19 19 19 19 19 18 18 18 17 17 18 19 20 21 21 21 22 23 23 23 23
25 25 24 24 23 23 23 22 21 21 21 20 20 20 19 20 20 19 19 18 18 17 17 18 18 18 18 18 18 18 18 18 19 19 20 21 22 22 22 22 22 23 23
24 23 23 23 23 23 23 22 22 22 22 21 21 21 20 20 19 19 18 18 17 17 17 16 17 17 18 18 18 17 17 18 19 19 20 20 21 21 22 22 22 22 22
22 23 23 23 23 22 22 21 21 21 21 21 21 20 20 20 19 19 18 18 17 17 16 16 17 17 17 17 17 17 17 18 19 19 20 20 20 21 22 22 22 22 22
21 22 22 22 22 21 20 21 21 21 20 20 20 20 19 19 19 19 18 18 18 17 17 17 16 16 16 17 17 17 17 18 18 19 19 19 20 20 21 22 22 22 22
20 21 21 20 21 20 21 21 21 21 20 20 21 20 20 20 19 19 18 18 18 18 17 17 17 17 17 17 17 18 18 18 19 19 19 19 20 21 21 22 21 22 22
20 20 21 21 21 21 22 22 21 21 21 21 21 21 21 21 20 19 19 19 19 19 19 19 19 19 18 18 18 18 18 18 19 19 19 20 21 22 22 22 22 22 22
19 20 20 20 20 21 21 21 21 21 22 22 22 22 21 21 20 20 19 19 20 20 20 20 20 20 19 19 19 19 19 19 20 20 20 21 21 21 22 22 21 21 21
19 19 20 20 20 20 21 22 22 22 23 22 22 22 22 21 20 19 19 19 20 21 21 21 21 21 20 20 19 19 20 20 20 20 20 21 22 22 21 21 21 21 21
19 19 20 20 20 21 21 21 22 22 22 22 22 22 22 21 20 19 19 20 20 21 21 21 21 20 20 20 20 20 20 21 21 21 21 21 21 21 21 21 21 21 21
20 20 21 21 21 22 22 22 22 22 22 22 22 22 22 21 21 20 20 20 21 21 21 21 21 21 21 20 20 20 21 21 21 21 21 21 21 21 21 21 21 21 21
Wind_Direction
292 292 291 290 291 295 298 298 295 291 288 288 290 291 291 287 286 287 286 285 280 275 272 271 268 265 264 263 264 266 264 264 264 261 261 261 262 261 263 263 262 264 264
289 291 289 290 291 295 298 298 298 293 287 287 290 290 289 287 285 284 285 286 282 276 273 271 267 266 264 263 264 265 265 265 265 264 262 261 261 261 262 262 262 264 265
287 287 287 289 291 295 297 298 299 295 290 288 289 289 290 289 289 289 288 285 282 278 273 269 268 268 266 268 268 267 266 266 265 266 264 263 262 262 263 262 264 266 267
285 286 286 290 293 296 296 298 299 296 293 290 288 289 290 289 289 290 290 286 280 277 272 269 267 267 269 271 271 269 267 265 266 266 265 263 262 261 262 264 267 269 270
281 285 287 288 291 294 293 295 296 295 293 292 289 288 290 291 290 290 291 286 280 277 274 270 268 266 268 272 271 270 268 266 265 267 267 266 264 264 267 268 269 269 270
279 284 287 288 291 292 292 292 292 291 289 290 291 291 292 292 291 290 289 287 281 279 278 273 269 268 268 269 268 268 267 266 267 269 270 269 268 268 270 270 269 268 269
278 282 284 286 288 291 290 290 290 290 287 288 291 291 292 293 293 291 288 286 281 277 278 274 268 267 268 269 268 267 268 269 270 268 268 268 268 270 272 271 270 269 269
277 280 284 285 287 289 290 289 287 287 286 284 287 290 291 291 291 290 287 283 281 279 276 277 270 266 268 267 269 268 270 270 270 269 268 268 269 270 273 274 271 271 271
277 279 282 282 283 284 286 287 287 286 285 284 285 288 288 287 288 289 289 287 283 280 276 275 274 270 268 270 272 272 271 271 270 269 268 270 269 270 272 273 273 274 274
276 277 279 279 281 283 284 284 285 284 283 283 284 285 287 286 287 288 289 288 285 282 279 277 276 274 272 272 273 274 273 272 271 270 268 269 271 271 273 274 274 275 275
276 276 276 276 279 281 282 282 282 283 283 283 283 283 283 284 287 287 287 287 286 284 281 279 278 278 275 273 274 276 275 273 270 270 270 270 272 273 275 276 275 275 275
275 276 277 276 278 280 282 281 280 280 281 282 283 281 281 281 283 283 281 283 284 285 282 279 277 277 277 277 276 278 276 273 272 272 272 273 274 275 275 275 275 276 276
272 274 275 275 275 278 279 280 279 278 279 280 281 281 282 280 280 280 280 281 282 283 282 280 279 277 278 280 282 280 278 276 274 273 274 273 275 275 275 275 276 277 277
270 271 272 273 273 275 278 279 278 278 278 278 276 278 282 281 278 279 281 281 279 279 278 277 277 278 279 281 281 281 280 279 278 277 275 273 273 275 278 278 279 279 278
269 269 271 271 271 272 274 275 276 277 276 275 276 277 279 281 279 279 282 282 281 280 279 278 278 278 279 279 280 282 281 280 278 278 278 278 277 278 280 279 280 282 282
267 267 268 269 269 270 270 271 273 273 273 274 276 278 278 280 281 279 280 282 281 280 280 281 280 279 280 279 279 279 279 279 280 281 279 278 280 282 284 282 281 282 283
267 266 267 268 269 270 270 269 269 270 273 275 276 277 278 280 280 279 278 280 281 280 282 283 282 282 281 282 281 280 280 280 281 282 280 281 282 284 284 283 284 285 285
265 265 266 269 270 269 268 268 268 268 270 273 275 276 277 278 278 277 276 277 279 282 283 285 285 284 283 284 284 283 283 282 283 284 284 285 286 286 285 285 285 286 288
263 263 265 267 268 267 265 266 268 269 270 272 274 275 277 275 274 273 272 274 277 280 282 284 285 285 285 285 285 284 283 282 283 285 286 285 286 288 289 287 286 286 287
263 263 263 264 264 263 263 265 267 268 269 271 273 276 278 277 274 273 272 274 277 279 280 283 284 285 286 286 285 286 286 284 284 285 285 285 286 289 290 290 288 287 286
263 263 262 263 263 262 264 264 265 267 268 270 273 275 276 276 274 272 272 274 275 276 278 278 280 283 286 287 286 287 287 286 285 285 285 287 289 291 291 290 289 289 289
263 261 261 263 262 261 264 264 265 265 267 271 272 274 274 274 272 270 271 273 274 274 275 275 277 281 282 284 286 287 288 287 289 289 288 290 291 291 291 291 289 288 288
264 263 263 263 262 262 264 266 267 267 269 271 273 274 272 272 271 269 270 271 272 274 273 272 276 278 279 281 284 286 286 287 288 289 290 292 294 295 293 292 291 289 288
267 267 266 265 265 264 265 265 266 267 268 270 271 271 271 271 271 272 273 272 273 274 275 274 276 277 277 279 281 284 286 286 286 288 289 289 291 293 293 293 292 290 289
269 270 268 266 266 267 268 269 267 267 268 269 269 268 268 270 269 271 273 272 272 273 274 275 276 276 276 279 281 283 286 286 286 287 289 290 291 292 293 293 292 290 289
271 272 269 268 268 268 270 271 269 268 268 269 268 266 267 268 268 271 273 273 273 272 273 275 276 276 277 277 279 282 285 286 286 287 289 291 292 294 294 293 291 290 290
Height
5820 5819 5818 5817 5815 5814 5812 5810 5808 5806 5804 5802 5801 5798 5796 5795 5794 5792 5790 5789 5788 5788 5787 5787 5787 5787 5788 5789 5790 5791 5791 5792 5793 5794 5794 5794 5795 5795 5796 5796 5797 5797 5798
5815 5814 5813 5812 5810 5809 5806 5804 5802 5799 5798 5796 5795 5793 5792 5790 5789 5787 5786 5785 5783 5783 5782 5782 5783 5783 5784 5784 5785 5786 5786 5787 5787 5788 5789 5789 5790 5790 5791 5791 5791 5791 5792
5809 5809 5808 5807 5805 5804 5801 5799 5796 5794 5792 5791 5789 5788 5787 5786 5785 5783 5781 5780 5779 5779 5778 5778 5779 5779 5780 5780 5780 5780 5781 5781 5782 5783 5783 5784 5785 5785 5786 5786 5786 5786 5786
5804 5803 5802 5801 5800 5798 5796 5794 5792 5789 5788 5786 5785 5784 5783 5782 5780 5779 5777 5776 5775 5775 5774 5775 5775 5775 5775 5775 5775 5776 5776 5776 5777 5777 5778 5779 5779 5780 5780 5781 5781 5781 5781
5799 5798 5797 5797 5795 5794 5792 5790 5788 5786 5784 5783 5781 5780 5779 5778 5776 5774 5773 5772 5771 5771 5770 5770 5771 5771 5771 5771 5771 5771 5771 5771 5772 5773 5773 5774 5774 5774 5775 5775 5775 5775 5775
5793 5793 5792 5791 5790 5788 5787 5785 5784 5782 5781 5779 5778 5776 5775 5773 5771 5770 5768 5767 5767 5766 5766 5766 5765 5766 5766 5766 5766 5766 5766 5767 5767 5767 5768 5768 5768 5769 5769 5769 5769 5769 5770
5787 5787 5786 5785 5784 5783 5781 5780 5779 5778 5777 5775 5774 5772 5770 5769 5767 5765 5764 5763 5762 5762 5761 5761 5761 5761 5761 5761 5761 5761 5762 5762 5762 5762 5762 5763 5763 5764 5764 5764 5763 5764 5764
5781 5781 5780 5779 5778 5777 5776 5775 5774 5773 5771 5770 5769 5767 5766 5764 5762 5761 5759 5758 5758 5757 5757 5756 5756 5756 5756 5756 5756 5756 5756 5757 5757 5757 5758 5758 5758 5758 5758 5758 5758 5758 5758
5775 5775 5774 5773 5773 5771 5770 5769 5768 5767 5766 5765 5764 5762 5761 5759 5758 5756 5755 5754 5753 5753 5752 5752 5752 5752 5751 5751 5751 5751 5751 5751 5751 5751 5752 5752 5752 5752 5753 5752 5752 5752 5752
5768 5768 5768 5767 5766 5765 5765 5763 5762 5761 5760 5759 5758 5757 5756 5754 5753 5752 5750 5749 5749 5748 5748 5748 5747 5747 5747 5746 5746 5746 5746 5745 5745 5745 5746 5746 5746 5746 5746 5746 5746 5745 5745
5761 5761 5761 5760 5760 5759 5758 5757 5756 5755 5754 5753 5753 5751 5750 5749 5748 5747 5746 5745 5744 5743 5743 5743 5742 5742 5742 5741 5741 5740 5740 5740 5739 5739 5740 5740 5740 5740 5739 5739 5739 5739 5739
5754 5753 5753 5753 5753 5752 5752 5751 5750 5749 5748 5748 5747 5746 5745 5744 5743 5742 5741 5740 5739 5739 5738 5738 5737 5737 5736 5736 5736 5735 5734 5734 5733 5733 5733 5733 5733 5733 5733 5732 5731 5731 5731
5746 5746 5746 5746 5746 5745 5745 5744 5744 5743 5742 5742 5741 5740 5739 5738 5737 5736 5736 5735 5734 5734 5733 5733 5732 5732 5731 5731 5730 5729 5729 5728 5727 5727 5727 5727 5727 5726 5725 5725 5724 5723 5723
5739 5739 5739 5739 5739 5738 5738 5737 5737 5736 5736 5735 5735 5734 5733 5733 5732 5731 5730 5729 5729 5728 5728 5727 5727 5726 5725 5725 5724 5723 5722 5722 5721 5721 5721 5720 5719 5719 5718 5718 5717 5716 5715
5730 5731 5731 5731 5731 5731 5731 5730 5730 5730 5729 5729 5729 5728 5728 5727 5726 5726 5724 5724 5723 5723 5722 5722 5721 5720 5720 5719 5718 5717 5716 5716 5715 5715 5715 5714 5713 5712 5711 5710 5710 5709 5707
5722 5723 5723 5723 5723 5723 5723 5723 5723 5723 5723 5723 5723 5722 5722 5721 5720 5719 5719 5718 5717 5717 5716 5716 5715 5714 5714 5713 5712 5712 5711 5710 5709 5709 5708 5707 5706 5705 5704 5703 5702 5701 5700
5714 5715 5715 5716 5716 5716 5716 5716 5717 5717 5716 5716 5716 5716 5715 5715 5714 5713 5713 5713 5712 5711 5711 5710 5710 5709 5708 5707 5706 5706 5705 5704 5703 5702 5701 5701 5700 5699 5697 5696 5695 5694 5693
5706 5707 5708 5709 5709 5709 5709 5709 5709 5710 5710 5709 5709 5709 5709 5708 5708 5707 5707 5707 5707 5706 5706 5705 5704 5704 5703 5702 5701 5699 5699 5698 5697 5696 5695 5694 5693 5692 5691 5690 5689 5688 5686
5699 5700 5701 5701 5701 5701 5701 5702 5702 5703 5703 5703 5702 5702 5702 5702 5701 5701 5701 5701 5701 5701 5701 5700 5699 5698 5697 5696 5695 5694 5692 5691 5691 5690 5689 5688 5687 5686 5684 5683 5682 5681 5680
5692 5693 5693 5694 5694 5694 5695 5695 5696 5696 5696 5696 5696 5696 5695 5695 5695 5695 5695 5696 5696 5696 5695 5695 5694 5693 5692 5691 5689 5688 5687 5686 5685 5683 5682 5681 5681 5679 5678 5676 5675 5674 5673
5685 5686 5686 5687 5687 5688 5688 5689 5689 5689 5689 5690 5690 5690 5689 5689 5689 5689 5690 5689 5690 5690 5689 5689 5688 5687 5686 5685 5684 5682 5681 5680 5679 5677 5676 5675 5674 5673 5671 5670 5668 5667 5666
5679 5679 5679 5680 5680 5681 5681 5682 5682 5682 5683 5683 5683 5683 5683 5683 5683 5683 5683 5683 5683 5683 5683 5683 5682 5682 5681 5679 5678 5677 5675 5674 5673 5671 5670 5669 5667 5666 5664 5663 5662 5661 5659
5672 5672 5673 5673 5674 5674 5674 5675 5675 5675 5676 5676 5676 5676 5676 5676 5676 5677 5677 5677 5677 5677 5677 5677 5676 5675 5674 5673 5672 5671 5669 5668 5667 5665 5664 5662 5661 5659 5658 5656 5655 5653 5652
5666 5666 5666 5666 5667 5667 5667 5668 5668 5668 5669 5669 5669 5669 5669 5669 5670 5670 5670 5670 5671 5671 5670 5670 5669 5669 5668 5667 5666 5665 5663 5662 5660 5659 5658 5656 5654 5652 5651 5649 5648 5646 5645
5660 5660 5660 5660 5660 5660 5660 5660 5661 5661 5661 5661 5661 5662 5662 5662 5663 5663 5664 5664 5664 5664 5664 5663 5663 5662 5661 5660 5659 5658 5657 5656 5654 5653 5651 5649 5648 5646 5644 5643 5641 5639 5638
5653 5653 5653 5653 5653 5653 5653 5653 5653 5653 5653 5654 5654 5654 5655 5655 5656 5656 5657 5657 5657 5657 5657 5656 5656 5655 5654 5653 5653 5652 5650 5649 5647 5646 5644 5643 5641 5640 5638 5636 5635 5633 5632